Location: *
(53.2783°S, 174.2442°W)
Time: 22:32:57
(UTC+00:00)

Daily predictions for brighter satellites

Satellite Brightness Start Highest point End
(mag) Time Altitude Azimuth Time Altitude Azimuth Time Altitude Azimuth
Cosmos 2263 Rocket 4.1 15:22:53 22° ENE 15:22:53 22° ENE 15:24:50 10° NE
ARGOS 4.4 15:27:13 10° NE 15:31:38 38° E 15:31:38 38° E
Cosmos 1980 Rocket 3.4 15:35:06 37° ENE 15:35:06 37° ENE 15:40:18 10° SE
CZ-2C R/B 4.0 15:44:29 10° SSE 15:47:23 32° SSE 15:47:23 32° SSE
Timation 2 Rocket 4.5 15:50:21 52° SE 15:50:38 52° SE 15:56:40 10° NE
SL-16 R/B 3.9 15:46:31 10° SSE 15:49:29 29° S 15:49:29 29° S
Cosmos 2369 Rocket 4.4 15:58:16 14° S 15:58:16 14° S 15:59:46 10° SSE
ISS -0.4 16:01:58 12° ENE 16:01:58 12° ENE 16:02:17 10° ENE
CZ-4B R/B 4.3 15:54:58 10° NE 15:59:46 49° ESE 15:59:46 49° ESE
Cosmos 1048 Rocket 4.3 16:13:36 67° ESE 16:13:36 67° ESE 16:18:29 10° SSE
Cosmos 44 4.3 16:16:13 38° ENE 16:16:13 38° ENE 16:18:59 10° NE
SeaSat 1 3.0 16:10:13 10° NE 16:14:02 54° NE 16:14:02 54° NE
COSMOS 2455 4.2 16:19:36 26° S 16:19:36 26° S 16:23:42 10° SE
S3M 3.9 16:17:53 56° S 16:19:21 89° W 16:25:40 10° N
Cosmos 2227 4.3 16:19:54 71° S 16:20:25 77° ESE 16:26:13 10° NE
Helios 1A 4.0 16:17:10 10° SSE 16:21:08 45° E 16:21:08 45° E
Cosmos 1302 Rocket 4.1 16:21:40 74° SE 16:21:44 74° ESE 16:27:03 10° NNE
USA 234 3.3 16:18:07 10° ESE 16:24:46 78° NNE 16:26:21 55° NW
SL-16 R/B 4.3 16:22:02 10° NNE 16:26:41 26° ENE 16:31:22 10° SE
Cosmos 1697 Rocket 3.1 16:30:03 51° S 16:30:03 51° S 16:34:39 10° SSE
Cosmos 2058 Rocket 4.4 16:32:52 32° SSE 16:32:52 32° SSE 16:35:21 10° SSE
Cosmos 2266 Rocket 3.9 16:32:05 10° N 16:38:12 83° E 16:44:21 10° SSE
Cosmos 1844 Rocket 3.2 16:38:48 32° S 16:41:13 55° SE 16:46:43 10° NE
Blok-L 4.2 16:42:20 50° N 16:42:20 50° N 16:48:06 10° NNE
Exosat Rocket 3.4 16:42:08 68° SW 16:42:49 87° WNW 16:48:26 10° NNE
SMAP 3.1 16:38:22 10° NNE 16:43:05 78° ESE 16:44:17 50° S
Cosmos 839 Rocket 4.4 16:42:55 48° W 16:44:54 64° SW 16:51:33 10° SE
Blok-ML 4.5 16:53:40 58° NW 16:53:49 59° NW 17:04:08 10° NE
SJ-11-01 4.1 16:50:41 10° N 16:55:25 77° WNW 16:56:12 61° SW
Cosmos-2242 3.9 16:53:55 10° N 16:58:10 50° E 17:02:29 10° SSE
Cosmos 1812 Rocket 4.5 16:55:27 10° NNE 16:59:40 49° E 17:03:56 10° SSE
BREEZE-M DEB (TANK) 3.2 17:00:04 33° NNE 17:00:04 33° NNE 17:02:08 10° ENE
Cosmos 2369 3.6 16:58:24 44° WNW 17:00:10 69° SW 17:05:57 10° SSE
DNEPR-1 R/B 3.4 17:02:35 65° NNW 17:02:35 65° NNW 17:06:32 10° NNE
Cosmos 2263 Rocket 3.2 17:04:37 28° NW 17:04:37 28° NW 17:07:56 10° N
ADEOS 4.0 17:00:26 10° NNE 17:05:39 64° ESE 17:10:55 10° SSW
Cosmos 2278 3.8 17:04:07 10° NNW 17:09:50 79° ENE 17:15:37 10° SSE
Cosmos 883 Rocket 4.5 17:05:58 10° SSW 17:12:01 55° W 17:18:00 10° NNW
ARGOS 3.5 17:07:18 10° N 17:12:30 43° W 17:13:07 42° W
Cosmos 1544 3.2 17:13:48 41° S 17:14:49 67° ESE 17:18:14 10° NNE
Cosmos 1992 Rocket 3.9 17:13:05 28° SSW 17:15:59 86° WNW 17:21:15 10° NNE
Cosmos 1943 Rocket 4.3 17:14:24 11° SSW 17:17:46 17° SSE 17:21:25 10° ESE
Cosmos 1980 Rocket 2.3 17:16:55 36° WNW 17:18:56 52° SW 17:24:35 10° SSE
Cosmos 1666 2.9 17:16:51 23° S 17:19:05 68° ESE 17:22:46 10° NNE
CBERS 1 LM4 rocket 4.3 17:15:04 10° N 17:19:55 69° WNW 17:23:03 22° SSW
CZ-4 R/B 4.0 17:17:27 10° ENE 17:20:19 19° ESE 17:23:15 10° SSE
Cosmos 2278 Rocket 4.0 17:16:12 12° SSW 17:20:24 24° SSE 17:25:00 10° E
SL-24 R/B 4.5 17:17:06 10° N 17:21:47 63° W 17:27:22 10° SSW
SL-08 R/B 4.2 17:19:33 10° SSE 17:24:08 50° E 17:28:40 10° N
Cosmos 2315 Rocket 4.2 17:22:51 10° SSW 17:28:50 48° W 17:34:47 10° NNW
AQUARIUS 4.3 17:25:01 10° N 17:29:26 52° W 17:31:36 28° SW
CZ-2C R/B 3.7 17:25:18 10° S 17:28:52 26° SW 17:28:52 26° SW
Cosmos 967 Rocket 4.5 17:26:53 15° NW 17:32:26 72° SW 17:38:55 10° SE
SL-16 R/B 4.0 17:31:12 10° S 17:34:34 18° SW 17:34:34 18° SW
ISS -2.7 17:34:51 32° NW 17:35:20 33° NNW 17:38:28 10° NE
BREEZE-M DEB (TANK) 3.3 17:35:27 19° NNW 17:36:32 27° NNE 17:39:34 10° E
Timation 2 Rocket 4.3 17:35:22 27° WSW 17:38:01 41° WNW 17:43:46 10° N
Nadezhda 1 Rocket 4.4 17:31:58 10° S 17:38:15 67° ESE 17:44:35 10° NNE
CZ-4B R/B 4.2 17:34:13 10° NNW 17:38:46 31° W 17:39:40 29° WSW
YAOGAN 1 3.7 17:35:57 10° NE 17:40:06 44° ESE 17:44:19 10° S
Cosmos 614 Rocket 4.4 17:35:41 10° NNW 17:40:47 65° ENE 17:45:54 10° SSE
CZ-4 R/B 4.4 17:37:59 10° NNE 17:42:11 87° ESE 17:46:25 10° SSW
SKYMED 2 4.3 17:38:17 10° SSE 17:42:41 57° E 17:47:01 10° N
Cosmos 2369 Rocket 4.3 17:40:13 10° SSW 17:43:00 14° S 17:45:47 10° SE
Cosmos 1242 Rocket 3.5 17:43:59 27° WNW 17:43:59 27° WNW 17:46:12 10° NNW
Cosmos 2237 4.4 17:40:53 10° NNW 17:46:37 78° ENE 17:52:26 10° SE
Cosmos 1655 Rocket 4.3 17:41:00 10° NW 17:46:58 44° WSW 17:53:03 10° S
Cosmos 1602 3.7 17:44:57 23° SSW 17:47:07 53° W 17:50:48 10° N
Okean 3 Rocket 4.2 17:43:53 10° S 17:48:20 57° ESE 17:52:45 10° NNE
Cosmos 1346 Rocket 4.2 17:51:08 21° SW 17:51:08 21° SW 17:53:11 10° S
Cosmos 1782 3.8 17:48:38 10° N 17:52:28 49° E 17:56:23 10° SSE
Cosmos 1461 3.1 17:51:09 30° WSW 17:52:35 44° NW 17:56:21 10° NNE
Cosmos 1766 Rocket 3.6 17:48:01 10° S 17:52:36 86° E 17:57:05 10° N
SeaSat 1 3.7 17:49:29 10° NNW 17:53:12 21° WNW 17:53:47 21° W
Cosmos 1818 3.6 17:49:19 12° WNW 17:54:17 61° SW 17:59:41 10° SE
Meteor PRIRODA 3.9 17:51:06 10° N 17:54:36 45° W 17:56:47 21° SW
Cosmos 44 4.3 17:54:38 22° W 17:55:24 23° WNW 17:58:47 10° NNW
Helios 1A 3.9 17:52:53 10° S 17:56:26 26° WSW 17:57:32 23° W
NOAA 6 4.2 17:52:01 10° N 17:57:06 54° W 18:02:14 10° SSW
CZ-4B DEB 4.3 17:54:14 10° NNE 17:59:51 84° ESE 18:05:32 10° SSW
Meteor 1-20 Rocket 4.3 17:54:54 10° SSW 18:00:29 59° W 18:06:06 10° N
Cosmos 1500 4.0 18:01:15 24° WSW 18:02:29 29° W 18:05:44 10° NNW
COSMOS 2455 4.4 18:02:44 13° SW 18:06:27 22° S 18:11:06 10° SE
Meteor 1-25 Rocket 4.3 18:00:55 10° SSW 18:06:34 60° W 18:12:05 10° N
IGS 5A 4.4 18:02:37 10° NE 18:06:38 48° ESE 18:10:42 10° S
USA 234 3.3 18:01:11 10° ESE 18:07:46 69° S 18:13:42 13° W
SL-16 R/B 2.2 18:04:37 10° NW 18:10:20 70° SW 18:16:06 10° SSE
Resurs 01 Rocket 4.2 18:08:10 10° E 18:11:05 17° SE 18:14:01 10° SSE
Cosmos 1437 Rocket 4.3 18:08:12 10° S 18:11:46 35° ESE 18:15:15 10° NE
Cosmos 1844 4.1 18:07:42 14° SW 18:12:34 48° WNW 18:18:06 10° N
CZ-4B R/B 3.4 18:09:06 10° N 18:13:16 48° W 18:17:38 10° SSW
Cosmos 2322 Rocket 2.2 18:08:01 10° NNW 18:13:41 87° WSW 18:19:25 10° SSE
Cosmos 1697 Rocket 4.1 18:11:49 16° WSW 18:14:08 21° SSW 18:18:22 10° SSE
Okean O Rocket 2.8 18:10:56 10° NE 18:15:07 43° ESE 18:19:20 10° S
DELTA 2 DEB (DPAF) 4.0 18:13:25 10° SSE 18:17:53 81° WSW 18:22:17 10° NNW
Cosmos 2360 Rocket 2.4 18:15:10 10° NNW 18:20:51 80° ENE 18:26:37 10° SSE
Cosmos 2221 2.5 18:20:06 10° N 18:24:29 86° W 18:28:55 10° S
USA 186 3.7 18:21:44 10° NE 18:24:38 30° ESE 18:27:36 10° S
Cosmos 1844 Rocket 3.4 18:20:29 13° SW 18:24:54 34° WNW 18:29:53 10° N
PAYLOAD B 4.3 18:21:30 10° NNE 18:27:07 81° WNW 18:32:51 10° SSW
COSMO-SKYMED 1 2.7 18:26:28 10° S 18:30:49 55° WSW 18:35:07 10° NW
ASTEX 1 4.2 18:26:32 10° NNE 18:31:20 55° ESE 18:36:12 10° S
Cosmos 2333 Rocket 2.6 18:27:11 10° NNW 18:32:49 72° ENE 18:38:33 10° SE
Cosmos 1269 Rocket 4.2 18:30:04 10° NW 18:35:18 52° WSW 18:40:35 10° SSE
SL-4 R/B 3.8 18:31:17 10° NW 18:35:29 37° NNE 18:39:50 10° E
SJ-6B 3.5 18:32:02 10° NNE 18:35:43 53° ESE 18:39:25 10° S
Cosmos-2242 4.1 18:32:17 10° WNW 18:35:53 24° WSW 18:39:33 10° S
Okean-O 4.4 18:32:05 10° NE 18:36:01 31° ESE 18:40:01 10° S
Cosmos 1933 3.4 18:32:56 10° NNW 18:36:59 60° WSW 18:41:07 10° S
Meteor 1-26 Rocket 4.4 18:32:02 10° N 18:37:45 86° ENE 18:43:43 10° SSE
Cosmos 405 Rocket 4.2 18:34:20 10° NNE 18:37:48 39° E 18:41:23 10° SSE
Meteor 1-14 Rocket 4.3 18:35:15 10° SSW 18:40:55 83° ESE 18:46:34 10° NNE
COSMOS 2428 4.5 18:36:04 10° N 18:41:15 37° ENE 18:46:29 10° SE
Cosmos 2333 4.5 18:35:51 10° NNW 18:41:29 76° ENE 18:47:14 10° SE
USA 81 4.4 18:37:13 10° SSW 18:42:21 47° W 18:47:25 10° NNW
Landsat 7 4.3 18:38:40 10° NNE 18:43:23 66° ESE 18:48:10 10° S
Cosmos 2219 Rocket 2.8 18:39:24 10° NNW 18:44:56 62° ENE 18:50:33 10° SE
Cosmos 1812 3.3 18:43:14 10° NW 18:46:44 34° WSW 18:50:18 10° S
Cosmos 1743 Rocket 3.9 18:46:51 10° S 18:51:27 77° ESE 18:55:59 10° NNE
CZ-4B R/B 3.3 18:46:37 10° N 18:52:18 72° WNW 18:57:59 10° SSW
Cosmos 1666 4.5 18:51:49 10° SW 18:53:36 13° W 18:55:23 10° WNW
CZ-4 R/B 1.5 18:50:41 10° N 18:54:41 65° WNW 18:58:51 10° SSW
Feng Yun 1-1 Rocket 4.4 18:49:13 10° NNE 18:54:54 90° WNW 19:00:49 10° SSW
Cosmos 1500 Rocket 3.6 18:52:18 10° SSW 18:56:46 83° W 19:01:11 10° N
NOSS 3-3 (A) 4.2 18:51:24 10° SW 18:57:52 54° NW 19:03:23 10° NNE
NOSS 3-3 (C) 4.2 18:51:29 10° SW 18:57:57 54° NW 19:03:29 10° NNE
SL-19 R/B 3.5 18:57:01 10° SSE 19:00:05 81° WSW 19:02:56 10° NNW
Cosmos 1745 Rocket 4.1 18:54:21 10° NNW 19:00:24 55° WSW 19:06:32 10° S
JB-3 4.4 18:56:14 10° S 19:00:27 74° WSW 19:04:35 10° NNW
Cosmos 1709 Rocket 4.0 18:57:22 10° NNW 19:03:33 74° WSW 19:09:51 10° S
